User: anonymous   Login
Location: *
(37.5724°S, 58.0067°E)
Time: 02:38:04
(UTC+00:00)
Language:

Gblst 52 Del rocket - Orbit

View from above orbital plane
View from above orbital plane
View from above satellite
View from above satellite

Ground track
Ground track

The orbit data is extracted from the following two-line orbital elements,

1 25774U 99031E   20329.05105542 -.00000095 +00000-0 +44407-4 0  9993
2 25774 051.5279 345.1733 0375598 082.4346 309.7665 13.46460323055600
Epoch (UTC): 24 November 2020 01:13:31
Eccentricity: 0.0375598
inclination: 51.5279°
perigee height: 805 km
apogee height: 1365 km
right ascension of ascending node: 345.1733°
argument of perigee: 82.4346°
revolutions per day: 13.46460323
mean anomaly at epoch: 309.7665°
orbit number at epoch: 5560

The dashed part of the orbit path shows where the satellite is in the earth's shadow,  

DLR